Preview of NWS' New Version of Forecast
This preview is not operational and should not be used for support decisions.

Regional Weather Roundup (RWR)

Issued by National Weather Service (NWS)

                            
000
ASCA42 TJSJ 210710
RWRPR 
PUERTO RICO/U.S. VIRGIN ISLANDS HOURLY WEATHER ROUNDUP
NATIONAL WEATHER SERVICE SAN JUAN PR
300 AM AST WED AUG 21 2019

PRZ001>002-007>008-010-210800-
PUERTO RICO
  
CITY           SKY/WX    TMP DP  RH WIND       PRES   REMARKS
SAN JUAN LMM   LGT RAIN  79  75  89 CALM      30.02F                  
CEIBA          PTCLDY    82  75  78 NE8       30.02F                  
$$

VIZ001>002-210800-
U.S. VIRGIN ISLANDS
  
CITY           SKY/WX    TMP DP  RH WIND       PRES   REMARKS
CHARLOTTE AMA  PTCLDY    81  75  83 E7        30.00F                  
CHRISTIANSTED  CLEAR     79  73  83 NE5       30.01F                  
$$

HOURLY WEATHER ROUNDUP FOR THE NEWS MEDIA
  
CITY           SKY/WX    TMP DP  RH WIND       PRES   REMARKS
ORLANDO        FAIR      78  75  90 E3        30.08F                  
NEW YORK       MOCLDY    75  75 100 S8        30.03F                  
NEWARK         FAIR      76  72  87 S5        30.02F                  
CHICAGO        FAIR      67  64  90 CALM      29.97S                  
HARTFORD       FAIR      63  61  93 CALM      30.05S                  
BOSTON         FAIR      71  61  70 SW3       30.03F                  
DALLAS         PTCLDY    86  71  60 S5        30.00F HX  91           
PHILADELPHIA   MOCLDY    77  70  79 CALM      30.00F                  
LOS ANGELES    PTCLDY    69  61  75 S3        29.87S                  
WASHINGTON DC  CLOUDY    71  67  87 CALM      30.01F